Theta_e
310 313 314 315 315 315 315 314 314 314 312 311 312 312 313 313 313 312 312 312 310 309 310 311 311 311 312 311 311 311 311 311 311 311 312 312 312 313 313 313 314 313 313 314 312 311 310 310 309 308 308 307 307 307 306 306 307 307 307 307 307 306 306 307 308 310 310 311 311 310 310 310 310 310 310 310 311 310 310 309 308 306 304 302 300 298
309 314 315 315 315 314 312 312 311 312 311 311 312 313 313 313 313 312 312 312 310 309 311 311 311 311 311 311 311 311 312 311 312 312 312 312 312 313 314 314 313 312 313 313 313 312 311 311 310 308 307 307 307 307 306 306 306 306 306 307 307 306 306 306 307 308 309 310 310 310 309 309 309 308 308 309 309 309 309 308 308 306 304 303 301 299
312 314 314 314 314 311 309 309 309 310 311 311 312 313 313 313 313 313 312 311 309 308 311 311 310 311 311 311 312 312 312 312 312 312 312 313 313 314 314 313 312 312 313 313 312 312 312 311 310 308 307 307 306 307 306 305 305 306 306 306 306 306 305 305 305 306 307 308 308 308 308 308 307 306 306 306 306 306 307 306 305 304 303 303 301 299
316 315 313 313 312 311 310 309 309 310 311 312 312 313 313 313 314 314 312 311 308 308 310 310 310 312 312 312 313 312 311 311 312 312 313 314 313 314 313 311 311 311 313 313 312 312 311 311 311 310 308 307 306 306 306 305 305 305 306 306 306 306 305 305 304 304 305 306 306 306 306 306 305 304 304 304 304 304 304 303 303 302 302 301 300 299
317 314 310 311 311 310 311 311 310 311 312 313 314 313 314 314 314 313 313 311 310 311 310 310 313 314 314 314 314 313 311 311 313 313 313 314 313 312 312 311 311 311 313 312 312 311 311 311 312 311 309 307 306 306 305 305 304 304 305 305 305 305 305 304 304 304 304 304 305 305 305 304 303 303 302 302 303 302 301 301 301 301 300 300 299 298
315 312 309 311 311 310 311 311 312 313 313 315 315 314 313 313 313 313 314 312 312 313 311 311 315 316 315 314 315 315 314 313 315 315 314 314 313 312 312 311 311 312 312 311 311 311 311 312 312 311 309 308 308 307 305 304 304 304 304 305 305 305 304 304 304 303 303 303 304 304 304 303 303 303 302 302 302 301 300 300 300 299 299 299 298 297
313 310 309 312 312 312 312 312 313 313 313 314 315 314 313 312 313 313 313 312 313 314 312 310 314 316 315 314 314 315 314 314 315 316 316 315 313 311 310 310 311 312 311 311 311 311 311 311 311 310 309 308 307 305 304 304 305 304 304 303 304 304 304 304 303 303 302 303 303 303 303 303 303 303 303 302 301 300 300 300 299 299 299 299 298 297
311 310 309 311 312 313 312 313 314 313 312 315 315 315 314 313 313 313 312 312 312 313 312 311 312 314 316 315 314 314 314 314 315 316 316 315 312 311 309 309 310 310 309 310 310 310 309 310 309 308 308 307 306 304 303 303 304 304 304 303 303 303 304 303 303 302 302 302 303 303 302 303 303 303 303 302 300 300 299 299 298 298 297 297 297 296
311 313 313 312 312 312 313 314 315 313 312 315 312 310 311 311 311 311 311 312 311 311 313 313 312 315 317 315 312 312 314 315 316 315 316 313 311 310 309 309 309 309 309 309 308 308 308 308 307 307 307 307 305 304 303 303 303 304 304 303 303 303 303 303 302 302 302 302 302 303 302 302 303 302 303 302 300 300 299 298 298 297 297 296 296 295
311 310 311 312 313 313 313 313 313 314 313 312 310 309 311 310 310 310 311 312 311 313 315 314 313 316 319 316 313 312 314 316 316 315 314 312 310 310 310 309 309 309 309 308 307 307 307 306 306 306 306 305 304 303 302 302 302 302 302 302 302 302 302 302 302 302 301 301 301 302 302 302 303 302 302 302 301 300 299 298 298 297 296 296 295 295
309 305 306 310 313 312 313 310 308 313 314 311 310 312 312 311 309 309 310 311 312 316 317 315 314 316 318 318 315 314 313 313 314 314 313 313 310 309 309 308 307 307 307 307 306 306 306 306 305 305 304 303 303 302 301 301 301 301 300 300 301 301 301 301 301 301 301 301 301 301 302 302 302 302 302 302 301 300 299 298 298 297 296 295 295 294
309 307 308 311 312 310 311 310 307 308 310 310 310 311 312 313 311 311 311 311 316 320 317 313 314 315 317 317 314 314 312 310 311 312 313 314 311 308 308 307 306 306 305 305 304 304 304 304 304 304 303 302 301 300 300 300 300 300 300 299 300 300 300 300 300 300 300 300 301 301 301 302 302 302 302 302 301 301 300 299 298 297 296 296 295 294
312 311 311 311 310 308 310 311 309 307 308 309 310 310 313 315 316 317 316 314 318 319 312 309 312 314 316 316 313 314 313 311 311 311 312 312 309 306 306 306 305 304 304 303 302 302 301 302 302 302 301 301 300 300 299 299 299 299 299 299 299 299 299 298 298 299 299 300 300 300 301 301 301 301 301 301 301 301 300 299 298 298 297 296 295 294
317 315 311 310 310 309 310 312 312 312 309 309 310 312 315 318 321 323 321 318 319 318 310 307 312 314 315 315 314 314 313 311 310 310 310 308 306 306 305 304 303 302 301 301 300 299 299 299 300 300 300 299 299 299 298 298 298 298 298 298 298 298 298 297 298 298 298 299 299 299 300 300 300 300 300 300 301 300 300 299 298 298 297 296 296 295
319 319 313 313 314 311 310 312 317 316 311 310 312 313 316 320 323 323 323 321 322 321 313 309 313 317 317 315 312 311 311 309 309 308 307 306 305 305 303 301 301 299 298 299 298 298 297 298 298 298 298 298 298 298 297 297 297 297 297 297 297 297 297 297 297 297 297 298 298 298 299 299 299 299 300 300 300 299 299 299 298 298 297 297 297 296
317 320 316 314 314 310 311 314 317 316 312 311 310 311 314 317 320 320 321 322 321 321 318 314 315 316 315 315 313 313 312 309 308 307 306 306 304 303 301 299 298 297 297 297 296 296 296 296 297 296 297 297 296 296 296 296 296 297 297 297 297 297 297 296 296 296 296 297 297 297 297 298 298 298 299 299 299 299 299 298 298 297 297 297 296 296
315 318 315 311 310 309 310 312 313 314 313 311 309 312 314 316 317 316 318 319 318 318 320 318 317 316 316 316 315 314 313 309 308 306 304 304 302 300 299 298 297 296 296 295 295 295 295 295 295 295 295 295 295 295 295 295 295 295 296 296 296 296 296 296 296 295 295 296 296 296 296 297 297 297 298 298 298 298 298 298 297 297 297 296 296 296
315 317 316 314 313 310 306 308 311 313 312 310 311 313 314 314 313 312 315 318 317 319 320 318 318 318 318 318 315 314 313 310 307 305 303 301 300 299 298 297 296 295 295 294 294 294 294 294 294 294 294 294 294 294 294 294 294 294 294 295 295 296 296 296 296 295 295 295 295 295 296 296 296 296 297 297 297 298 297 297 297 296 296 296 296 295
314 316 317 315 313 310 306 308 312 311 310 310 311 311 311 314 314 313 315 317 318 320 320 319 319 318 318 319 316 314 312 310 306 303 301 300 298 298 297 296 295 294 294 294 293 293 293 293 293 293 293 293 293 293 293 293 292 293 293 293 293 294 294 295 295 295 295 295 294 294 295 295 295 295 295 296 296 296 297 297 296 296 296 295 295 295
313 316 318 314 311 310 309 310 312 311 310 310 310 309 310 312 313 314 314 314 318 320 319 320 320 319 318 317 314 311 309 307 305 303 300 298 297 297 296 295 295 294 294 293 293 292 292 292 292 292 292 292 292 292 292 292 292 292 292 292 292 292 292 293 294 294 294 295 294 294 294 294 294 294 295 295 295 295 296 296 296 295 295 295 295 295
314 315 317 315 313 312 312 312 313 313 312 310 310 311 310 311 312 313 312 313 316 317 319 320 319 319 319 316 310 306 305 304 303 301 300 298 297 296 295 295 294 294 293 293 293 292 292 292 292 291 292 291 292 292 292 292 291 291 291 291 291 292 292 292 292 293 293 293 294 294 294 294 294 294 294 294 294 294 294 294 295 295 294 294 294 294
314 315 315 315 315 314 315 315 313 313 314 313 313 313 313 313 314 314 315 315 314 315 317 317 318 318 316 310 305 302 302 302 301 300 298 297 296 296 295 294 294 293 293 292 292 292 292 292 292 291 292 291 291 291 291 292 291 291 290 290 290 291 291 291 291 291 292 292 292 293 293 294 294 294 294 293 293 293 293 294 294 294 294 294 294 294
312 313 315 315 315 314 315 315 313 313 314 313 313 313 313 314 314 316 317 316 315 315 315 316 318 317 310 303 302 301 299 299 298 298 297 296 295 295 294 294 293 293 293 292 292 292 292 292 291 291 291 291 291 291 291 292 291 291 290 290 290 290 290 290 289 289 290 290 291 291 291 292 292 293 293 293 292 292 292 293 293 293 293 293 293 293
310 311 314 315 315 314 314 313 312 312 312 313 313 312 313 314 314 314 313 313 314 315 315 316 318 318 309 301 300 299 297 296 296 296 296 295 294 294 294 294 293 293 293 292 292 292 292 292 291 291 291 291 291 291 291 291 291 291 290 289 289 289 289 289 288 288 288 288 289 289 290 290 290 291 292 293 293 293 292 292 292 292 292 293 293 292
310 311 314 314 315 314 314 313 312 311 312 312 312 311 312 312 312 312 311 311 312 314 315 315 316 318 313 304 300 299 297 296 295 294 295 294 294 294 294 294 293 293 293 293 293 292 292 292 291 291 291 291 291 291 291 291 291 291 290 289 288 288 288 288 288 288 288 287 287 288 288 288 289 289 290 291 292 293 293 292 292 291 292 292 292 292
309 311 313 313 314 314 313 313 313 312 311 310 310 310 311 311 311 310 310 311 313 314 314 314 314 315 314 308 305 304 301 297 295 294 294 294 293 293 293 293 293 293 293 293 293 293 292 292 292 292 291 291 291 290 290 290 290 290 290 289 289 288 287 287 287 287 288 287 288 288 287 287 287 288 288 289 290 291 291 292 292 292 291 291 291 292
307 310 312 312 312 312 312 312 312 311 310 310 310 310 309 309 309 309 309 310 310 310 310 310 310 311 310 307 308 308 303 298 296 294 294 293 293 293 293 293 293 293 293 293 293 293 292 292 292 292 291 291 290 290 290 290 290 290 290 290 289 288 288 287 287 287 288 288 288 288 288 287 287 286 287 287 288 288 289 290 291 292 292 291 291 291
306 308 309 310 310 310 310 310 309 307 307 308 308 307 307 307 307 307 307 307 307 308 308 308 307 308 307 306 307 305 300 296 295 294 293 293 293 293 293 293 293 292 293 293 292 292 292 292 292 292 291 291 290 290 290 290 290 290 290 290 289 288 288 287 287 287 288 288 288 288 288 287 286 286 286 286 286 287 287 288 289 290 291 291 291 290
304 305 307 307 307 307 306 306 305 304 304 305 305 305 305 305 305 306 305 305 305 306 306 305 305 306 305 304 304 300 295 294 294 293 293 292 293 293 293 293 293 292 292 292 292 292 292 292 292 292 292 291 290 290 290 290 290 290 290 290 290 289 288 288 287 287 288 288 288 288 287 286 285 285 285 285 285 285 286 286 287 288 289 290 291 291
302 303 304 303 303 303 303 303 303 302 302 302 302 302 302 302 303 303 303 303 304 304 304 304 304 304 303 301 300 296 293 293 292 292 292 292 292 293 293 293 293 293 292 292 292 292 292 292 292 293 292 291 290 290 290 290 290 290 289 289 289 289 288 288 288 288 288 288 288 288 287 286 285 285 285 285 285 285 284 285 285 286 287 288 290 290
302 303 302 300 300 301 301 301 301 300 300 299 299 299 299 299 300 300 300 301 301 302 302 301 301 302 299 296 295 294 293 292 292 291 292 291 292 292 292 293 293 293 292 292 292 292 292 292 292 293 292 292 291 290 290 290 289 289 289 289 289 289 288 288 287 287 288 288 288 288 287 287 286 285 284 284 284 284 284 284 284 285 285 286 287 289
300 300 300 299 300 300 300 300 299 297 297 296 296 296 296 297 297 298 299 300 299 299 299 299 300 300 297 294 293 293 292 291 291 291 291 291 292 292 292 292 293 293 292 291 291 292 292 292 292 292 292 292 291 290 290 289 289 289 289 289 288 288 288 287 287 287 287 287 287 287 287 287 287 285 284 284 284 284 284 284 284 284 284 285 285 287
298 298 298 299 299 299 299 297 295 294 294 294 295 295 295 295 295 296 297 297 297 298 298 299 298 296 295 294 292 291 292 291 291 291 291 291 291 291 292 292 292 292 292 291 291 291 291 292 292 292 292 292 291 290 290 289 289 289 288 288 288 288 287 287 287 286 286 286 286 287 287 287 286 286 285 284 284 284 284 284 284 284 284 284 284 285
297 297 297 297 298 297 296 295 294 293 294 295 296 296 296 295 296 296 296 296 298 298 297 297 296 293 294 294 292 291 291 291 291 290 291 291 291 291 291 291 291 292 292 291 291 291 291 292 293 292 292 292 291 290 289 289 289 288 288 288 287 287 287 287 286 286 286 286 286 286 286 286 286 286 285 285 284 284 284 284 284 284 284 284 284 284
296 296 295 295 295 294 293 293 293 294 294 295 296 296 295 296 296 296 296 297 298 296 296 296 295 293 293 293 292 291 291 291 291 291 291 291 291 292 291 291 292 292 292 291 291 291 291 292 292 292 292 292 291 290 289 289 288 288 288 287 287 287 287 287 286 286 285 285 285 285 285 286 285 285 285 284 284 284 284 284 284 284 283 284 284 283
295 294 293 293 293 292 292 293 293 294 293 293 294 294 295 295 296 296 297 297 296 295 296 297 295 293 292 292 291 291 292 292 292 292 292 292 292 292 292 292 292 292 292 291 290 291 291 291 292 292 292 292 291 290 289 288 288 287 287 286 286 286 286 286 286 286 285 285 285 285 285 285 285 284 284 284 284 285 285 285 284 284 284 284 284 283
294 294 293 292 292 292 292 293 293 293 293 293 293 294 295 295 295 295 296 296 296 295 293 293 293 292 291 291 290 291 292 292 292 292 292 292 293 293 292 292 292 292 292 291 291 291 291 291 292 292 291 291 290 289 288 287 287 286 286 285 285 285 286 286 286 285 285 284 284 284 284 284 284 283 283 283 283 283 284 284 284 284 284 285 284 284
293 294 293 292 293 292 292 293 294 293 293 293 294 294 293 293 293 294 294 295 297 296 293 291 291 291 291 291 290 291 292 292 291 291 291 292 292 291 291 292 292 292 292 292 292 292 291 291 291 290 290 289 288 287 287 286 285 285 285 285 284 285 285 285 285 285 284 284 284 284 284 283 283 282 282 282 282 282 282 283 283 283 284 284 284 284
292 293 293 293 294 293 293 294 294 294 294 294 295 293 291 291 292 294 293 293 295 294 292 291 291 290 291 291 290 291 291 290 290 290 291 291 290 290 290 290 291 292 292 292 291 290 290 289 288 287 287 286 286 285 285 284 284 283 283 283 283 284 284 284 284 284 284 283 283 283 283 283 282 281 281 281 281 281 281 282 282 282 283 284 284 283
292 293 293 293 293 293 293 294 294 293 293 294 294 293 291 291 291 293 292 292 292 292 291 290 290 290 290 290 290 290 290 290 290 290 290 290 290 290 290 289 290 290 290 290 289 288 287 286 285 285 284 284 284 283 283 282 282 282 282 282 282 282 283 283 283 283 283 282 282 282 282 282 281 281 281 280 280 280 280 281 281 282 282 283 283 283
290 291 292 292 293 293 293 293 293 293 293 293 294 292 291 290 291 292 292 291 291 291 290 289 290 289 289 289 289 290 290 290 290 290 290 290 289 289 290 290 289 288 288 287 287 285 284 284 283 283 283 282 282 282 281 281 281 281 281 281 281 281 281 281 281 281 281 281 281 281 280 280 280 280 279 279 279 279 279 279 280 280 281 282 281 281
288 289 289 290 292 292 292 293 292 292 292 293 293 291 290 290 292 292 291 289 289 290 290 288 289 289 289 289 289 289 289 290 290 290 289 289 288 288 289 288 287 287 286 285 284 283 282 282 281 281 281 281 281 280 280 279 279 279 279 279 279 279 279 279 279 279 279 279 279 279 279 278 278 278 278 278 278 278 278 278 278 279 279 279 279 279
289 289 289 290 291 290 291 292 291 291 292 292 291 290 290 291 292 291 290 289 290 290 289 289 289 289 289 289 289 289 289 289 289 289 288 287 287 287 287 286 285 284 283 283 282 282 281 280 280 280 280 279 279 279 278 277 277 277 277 277 277 277 277 277 277 277 277 277 277 276 277 277 277 277 277 277 277 277 277 277 277 277 277 277 277 278
289 290 289 289 290 289 289 290 291 291 291 290 290 290 291 291 291 290 290 290 290 290 289 289 289 289 288 288 288 288 288 287 287 287 287 286 286 284 284 283 282 282 282 281 281 280 279 278 278 278 277 277 277 276 276 275 275 275 275 275 275 275 275 275 274 274 274 274 274 274 274 275 275 275 275 275 275 276 276 276 276 276 276 276 276 277
290 290 290 289 290 290 289 290 290 290 290 289 289 290 291 290 290 290 290 289 289 289 289 288 288 288 287 286 286 287 287 286 286 285 284 284 283 282 281 281 281 281 280 280 279 278 277 276 276 275 275 274 274 274 274 274 274 273 273 273 273 272 272 271 270 270 270 270 271 271 272 272 272 273 273 273 274 274 274 274 274 274 275 275 275 276
290 290 289 289 290 290 289 290 290 290 290 290 289 290 290 290 290 290 289 289 289 289 288 287 287 287 285 284 285 285 285 285 283 282 282 281 281 280 280 280 280 279 278 278 277 276 274 274 273 273 273 273 272 272 272 271 271 270 270 270 269 268 268 267 267 267 267 267 267 268 268 269 270 270 270 271 271 272 272 273 273 273 273 274 274 275
289 288 288 288 289 289 289 289 289 289 289 290 289 289 289 289 289 289 289 289 288 286 285 284 284 283 282 281 282 282 282 282 280 280 280 280 279 279 279 278 278 277 276 276 274 273 272 272 271 271 271 270 270 269 269 268 267 267 267 266 266 265 265 264 264 264 264 264 265 265 266 266 267 267 268 268 269 270 270 271 271 272 272 273 273 274
289 288 288 288 289 288 288 289 289 289 289 289 289 289 289 289 289 289 287 285 284 282 281 280 280 280 280 279 280 280 279 279 278 278 278 278 277 277 277 277 276 275 274 273 272 271 270 270 269 269 268 268 267 266 266 265 265 264 264 264 263 263 263 262 262 262 263 263 263 263 263 264 265 265 266 266 267 268 269 269 270 270 271 271 272 273
288 288 287 288 288 288 288 289 289 288 288 289 288 289 289 288 288 287 284 282 280 279 278 278 278 278 278 278 278 278 277 277 276 276 276 276 275 275 275 274 273 272 272 271 270 269 268 267 267 266 265 265 265 264 264 264 263 263 263 262 262 262 262 262 262 262 262 262 262 262 263 263 263 264 264 265 265 266 267 267 268 269 269 270 271 271
288 288 287 287 288 288 288 288 288 288 288 288 288 288 288 286 285 284 282 280 279 278 277 276 276 276 276 276 276 275 275 275 275 274 274 273 273 273 273 272 271 270 270 269 268 267 266 265 264 264 263 263 263 263 263 262 262 262 262 262 262 261 261 261 261 261 261 262 262 262 262 262 263 263 263 263 264 264 265 265 266 267 268 269 269 270
288 289 288 288 288 288 288 289 289 288 288 288 288 286 283 281 281 282 281 279 278 276 275 275 275 275 274 274 274 274 273 273 273 272 272 271 271 271 270 269 269 268 267 266 265 265 264 263 263 262 262 262 262 262 262 262 262 262 261 261 261 261 261 261 261 261 261 262 262 262 262 262 262 262 262 263 263 263 263 264 264 265 266 267 268 269
Wind_Speed
2 5 6 6 9 12 12 11 14 12 7 6 6 9 10 11 12 12 15 13 4 7 11 13 18 19 17 18 17 17 17 19 21 20 17 17 16 15 15 12 6 6 5 3 5 9 11 12 12 14 15 16 17 18 19 19 21 23 25 27 29 29 30 29 26 26 28 26 25 26 30 34 37 40 43 45 48 48 49 51 52 51 51 50 50 49
2 7 7 10 13 9 5 4 7 9 9 10 9 10 11 10 13 13 15 15 4 3 8 9 17 19 17 20 19 19 19 19 19 18 17 19 19 15 11 5 5 5 5 4 8 9 9 10 10 11 12 12 12 13 14 15 17 19 21 24 25 26 27 28 26 26 27 26 26 26 27 28 26 32 39 41 43 47 49 50 51 50 50 50 50 50
4 7 9 14 12 3 1 1 3 8 10 10 8 9 9 8 12 12 10 9 3 2 8 11 15 16 18 23 22 18 16 16 16 16 17 20 18 10 5 6 6 7 7 7 7 7 7 6 7 9 10 10 10 10 11 12 13 15 17 20 22 23 26 29 28 29 29 26 28 27 23 21 19 21 30 34 35 40 45 46 46 47 48 49 49 49
5 5 9 14 10 6 8 5 4 8 8 8 8 8 9 8 9 8 4 2 2 4 10 14 14 13 15 15 12 12 10 11 15 17 19 17 11 8 7 6 6 6 6 6 6 6 6 5 6 8 10 12 13 11 10 10 10 11 14 17 19 21 24 26 28 31 31 27 28 28 25 23 19 17 23 28 33 36 38 40 41 43 45 46 48 49
9 2 2 6 6 9 12 7 6 9 8 9 8 8 11 12 12 12 8 6 8 7 5 10 12 7 4 0 2 3 4 6 11 16 15 6 3 4 3 2 2 4 4 4 6 6 6 7 9 11 16 19 18 14 13 12 10 10 11 13 16 17 20 24 27 30 30 28 26 24 24 23 19 19 20 22 27 28 29 33 36 39 42 44 46 49
10 2 4 3 4 6 8 8 9 10 8 8 8 12 16 15 14 16 12 7 7 5 1 7 10 3 2 2 2 5 6 7 11 14 9 3 5 3 3 1 2 3 3 4 5 5 7 9 11 15 20 21 17 16 18 17 14 11 9 9 11 13 16 21 24 26 28 27 24 20 20 20 17 19 20 20 21 20 25 31 31 35 41 43 45 47
6 1 2 3 4 5 6 8 11 10 8 8 4 9 13 13 12 12 10 5 5 4 2 3 6 6 5 5 5 8 9 12 14 12 8 5 5 4 3 2 2 4 5 5 5 7 9 10 12 16 19 18 17 20 24 24 22 18 13 10 9 9 12 17 20 23 25 24 22 21 23 22 20 20 19 19 19 19 25 29 31 35 39 42 44 45
3 2 2 2 5 5 6 9 8 9 8 6 1 1 5 7 8 6 5 5 4 6 2 4 6 8 8 4 3 5 8 13 14 10 6 7 9 8 6 5 6 6 6 6 8 10 11 12 14 16 18 18 19 25 29 29 27 23 18 14 10 8 9 14 17 20 23 23 21 22 23 22 22 22 17 15 18 20 22 25 29 31 34 38 42 44
3 5 5 7 5 6 8 5 4 10 7 2 4 2 0 1 3 2 3 5 3 5 4 5 6 7 8 2 3 2 7 11 9 5 4 8 10 8 7 8 7 7 8 9 10 11 11 13 16 16 17 19 22 27 32 32 31 27 22 18 15 11 9 11 15 17 21 23 21 21 21 21 21 21 18 15 17 20 21 24 27 28 30 34 38 42
1 2 4 7 6 7 6 0 3 9 6 1 4 2 3 2 1 1 3 4 2 6 6 6 8 6 9 1 5 2 4 5 3 0 3 7 8 7 9 9 9 10 11 11 12 11 12 13 15 15 16 18 21 28 35 35 33 30 26 22 19 15 11 12 14 15 18 21 22 20 19 20 20 18 17 16 16 17 18 22 25 27 29 31 35 40
1 2 1 4 6 4 3 4 1 3 1 2 3 0 0 1 1 0 2 2 4 8 4 9 13 8 6 0 4 2 0 2 3 3 4 4 9 9 10 11 12 13 12 12 13 13 13 15 17 17 18 20 24 31 38 38 35 32 30 26 21 18 16 14 14 13 15 18 20 20 19 20 20 18 16 16 17 16 16 19 21 24 26 29 33 37
3 3 2 2 2 1 3 2 1 2 2 2 1 2 3 2 1 2 1 1 4 6 0 4 6 8 9 2 1 2 2 1 4 6 11 9 11 11 10 11 12 13 13 13 13 13 14 17 19 20 21 23 26 31 34 35 35 33 32 29 24 21 20 17 14 13 13 15 18 20 20 20 20 18 17 18 18 16 17 18 18 18 21 24 28 32
4 6 4 0 1 4 4 2 1 2 2 2 1 1 3 3 2 3 2 2 5 4 1 1 1 6 11 5 4 10 7 1 2 5 9 10 11 11 10 12 12 12 13 14 13 13 13 14 16 18 20 23 26 29 29 30 31 30 30 30 26 23 23 21 17 14 13 13 16 18 20 20 19 18 19 20 19 17 18 18 17 17 19 21 24 29
3 2 4 3 2 6 9 6 4 3 5 6 5 4 3 2 3 4 2 2 5 2 2 1 2 5 8 6 7 12 7 6 6 6 6 8 10 10 12 13 13 13 13 12 12 13 13 13 15 18 21 22 25 27 28 27 27 26 27 28 27 25 25 24 19 16 14 14 15 16 18 18 17 17 19 19 19 18 17 17 18 19 21 24 28 33
5 5 5 7 2 7 13 9 3 3 5 7 4 3 4 3 3 5 3 4 7 5 1 2 2 4 5 1 1 2 4 7 7 6 9 11 11 11 13 13 13 13 12 11 11 12 13 15 18 20 21 22 24 26 26 25 25 24 24 25 25 25 26 26 24 19 16 15 15 16 17 18 18 18 18 18 18 18 17 18 19 20 24 28 32 34
6 8 2 2 0 7 10 5 3 4 2 2 2 1 4 3 4 5 5 5 6 6 3 4 3 5 5 4 8 7 3 8 9 11 14 13 12 12 11 12 11 11 10 10 11 12 13 16 18 19 21 22 24 25 24 23 22 22 22 22 23 23 24 26 27 24 20 18 17 16 17 18 18 18 19 19 19 18 18 18 19 21 25 30 32 33
5 5 3 3 1 4 2 1 2 1 1 2 3 3 2 0 2 4 5 2 1 5 5 4 6 7 7 8 9 7 5 12 11 12 13 11 11 11 10 9 9 9 9 10 10 11 12 15 17 18 19 21 21 21 21 21 20 19 19 19 19 21 24 26 29 28 25 22 20 18 17 17 17 18 20 21 20 20 18 19 22 23 25 28 32 33
3 5 2 3 2 1 1 2 0 1 0 3 3 2 0 1 1 2 3 1 3 7 5 5 12 10 7 6 2 6 9 10 9 10 10 9 10 11 10 9 9 9 8 9 9 10 11 13 15 16 16 17 17 16 17 18 19 18 19 20 20 22 24 25 27 28 28 26 23 21 20 18 18 18 19 20 21 20 18 19 22 25 25 27 31 33
2 6 4 2 1 1 2 2 2 1 1 1 1 1 0 2 3 3 3 2 5 8 4 6 12 9 7 9 3 4 6 8 8 8 9 10 11 10 9 8 8 8 7 7 8 8 9 11 12 13 13 13 14 14 14 15 17 20 22 25 27 26 27 26 27 27 28 29 27 25 22 20 18 17 18 19 20 19 19 19 21 24 27 28 30 32
2 4 5 1 1 1 2 3 4 3 2 1 1 1 1 1 3 2 1 1 5 8 7 7 8 7 7 6 1 6 7 8 8 9 9 9 9 7 6 6 6 6 6 6 7 7 7 8 9 9 8 8 8 9 11 13 16 19 21 24 26 27 28 28 28 27 27 29 30 29 27 24 20 18 17 17 18 18 19 20 22 25 28 30 31 31
0 3 5 1 0 2 3 4 3 4 4 3 3 2 1 1 1 2 2 2 5 8 8 7 7 7 3 2 8 9 7 7 7 7 6 6 7 6 6 5 5 5 5 5 5 5 5 6 8 7 7 7 7 9 11 12 14 15 17 19 20 20 22 24 24 25 25 25 28 30 31 30 29 25 21 18 18 18 19 21 23 27 29 30 30 31
2 3 5 5 4 6 6 2 3 3 2 2 3 4 5 5 4 7 7 6 6 6 5 7 9 6 0 4 8 9 7 7 6 6 6 5 5 5 5 5 5 5 5 6 6 5 6 7 8 8 8 10 11 12 13 13 14 15 16 17 17 18 20 23 25 25 24 24 25 27 29 29 31 31 28 25 22 19 19 20 22 25 28 29 30 31
1 1 5 8 7 10 10 2 3 2 3 4 6 7 9 9 7 9 10 6 5 6 5 7 10 5 1 4 7 8 7 6 5 5 6 4 3 4 4 4 4 4 4 5 4 4 5 7 8 8 9 11 12 14 15 16 17 18 18 19 19 19 20 22 24 24 24 24 24 25 27 28 29 30 31 29 26 23 21 20 20 22 24 26 28 30
1 2 5 7 6 9 10 2 5 2 2 4 4 4 5 7 6 7 7 5 4 5 5 7 9 4 1 2 6 8 8 7 5 4 5 4 3 3 2 2 2 2 2 3 2 3 3 5 7 9 11 13 14 15 17 17 18 20 21 22 24 24 24 25 26 26 27 27 28 29 31 31 32 32 33 32 30 28 26 23 21 20 21 23 26 28
1 2 3 4 4 5 7 4 2 2 1 1 3 3 2 3 6 6 4 3 4 6 8 9 7 2 3 5 6 8 9 8 6 4 5 4 4 3 3 3 2 2 2 3 3 3 4 5 7 9 11 13 14 15 16 17 17 18 20 23 24 25 27 28 28 27 28 28 29 31 33 33 33 33 33 32 31 30 29 27 24 21 19 20 22 24
1 2 2 3 5 6 6 5 2 0 1 2 4 5 3 4 6 7 5 5 5 4 6 7 5 4 2 3 5 5 6 6 6 5 4 4 4 3 3 3 4 4 4 6 6 6 6 6 7 9 10 10 11 12 13 14 14 15 16 18 20 22 24 26 27 26 26 25 24 24 27 29 30 30 30 30 30 30 30 29 28 25 21 18 19 21
1 2 4 7 8 8 9 9 4 2 3 5 7 9 9 9 8 6 6 7 6 6 7 7 10 12 11 13 14 6 2 4 4 3 2 2 2 1 1 1 2 2 3 4 4 5 6 6 7 10 11 11 10 10 10 10 11 12 13 14 16 19 20 22 24 24 23 21 19 18 21 24 26 27 28 28 28 29 29 30 30 28 26 22 19 18
2 4 6 9 10 10 13 14 8 3 4 8 11 14 14 12 10 8 9 10 9 9 8 8 12 14 12 15 16 7 3 3 3 2 1 0 1 1 1 2 3 2 2 3 3 3 3 4 5 7 9 11 12 12 11 11 10 11 12 12 14 16 18 20 22 22 20 19 17 17 19 22 24 27 27 28 28 28 29 30 30 30 28 26 22 19
2 6 6 6 9 11 12 13 8 4 6 8 12 16 16 16 14 13 13 14 12 12 12 12 16 18 16 16 12 4 5 3 3 2 2 2 3 3 3 4 5 4 4 4 4 4 4 4 4 5 7 9 10 12 13 13 13 13 13 13 13 14 14 16 17 17 17 16 16 16 19 22 24 26 27 28 28 29 29 29 29 29 29 27 25 23
2 4 3 3 7 9 10 11 9 8 10 11 13 15 17 19 20 17 16 17 16 17 18 18 21 22 15 7 2 4 4 3 3 3 3 4 4 4 5 6 6 6 6 6 5 5 5 5 6 7 8 9 9 11 12 13 14 15 16 16 16 16 16 16 15 14 14 14 14 15 17 19 22 25 27 28 28 29 30 30 30 30 30 29 27 25
3 2 1 2 4 7 10 12 11 10 12 13 14 16 19 20 20 18 17 16 15 18 19 20 21 18 6 3 4 2 1 2 4 5 5 5 4 5 6 7 7 7 7 7 6 6 6 6 7 7 8 9 10 10 11 12 13 14 16 17 18 19 21 20 18 17 16 15 15 15 16 17 20 24 27 28 28 29 30 31 31 31 31 31 30 28
3 2 2 3 5 7 9 10 10 10 11 13 15 18 21 19 16 16 15 13 14 15 16 16 14 8 1 4 1 1 1 4 6 6 6 6 5 5 6 8 9 8 8 8 7 7 7 8 8 8 9 10 10 10 10 11 11 13 14 16 18 20 22 22 21 21 20 20 19 18 17 17 19 24 28 29 30 30 30 30 31 31 31 31 31 30
2 2 3 3 5 8 8 4 3 5 8 10 11 13 16 16 16 15 14 15 16 14 12 10 6 1 3 3 1 2 2 4 7 7 7 7 6 6 6 8 9 9 9 9 9 9 8 8 9 10 11 11 10 10 11 10 11 12 13 15 17 18 20 20 21 21 22 23 23 22 20 19 20 23 26 29 31 32 31 31 31 31 31 31 32 32
4 5 5 4 6 9 6 2 2 4 9 7 2 1 4 8 9 11 13 14 10 4 2 2 2 3 4 3 1 3 2 4 6 7 7 7 7 8 9 10 10 10 10 10 9 9 8 9 10 11 12 12 12 12 12 12 12 12 13 14 16 17 17 18 19 20 21 22 23 23 22 22 22 22 23 26 30 31 31 32 32 32 31 31 31 32
7 7 4 3 4 5 2 1 5 9 7 3 3 2 0 4 6 10 13 10 3 3 3 3 5 6 5 3 3 4 5 7 7 8 8 8 8 9 10 11 11 11 11 10 9 9 9 10 11 11 12 12 11 12 13 13 13 13 14 15 16 17 17 17 19 21 21 21 23 24 23 23 23 24 25 26 26 26 27 28 30 31 32 32 32 32
9 7 3 2 3 2 1 5 8 5 4 7 8 2 2 3 6 9 10 6 6 6 7 6 6 6 3 3 4 6 6 6 6 7 9 10 9 9 10 12 12 12 11 10 10 11 12 14 14 14 15 13 11 12 13 13 14 15 17 19 19 20 19 18 19 19 19 20 21 23 23 24 25 28 30 28 24 24 25 25 25 27 28 30 31 33
10 8 4 3 4 3 5 8 7 6 7 9 8 2 2 2 3 3 4 3 6 7 5 4 4 3 3 6 8 7 4 3 5 7 8 9 9 9 10 12 13 14 13 13 13 14 16 17 16 16 17 15 14 14 13 13 14 15 17 20 21 22 22 21 20 19 20 20 20 21 22 23 26 30 33 30 26 27 28 26 25 25 23 24 26 31
11 9 7 5 4 4 4 6 6 7 5 3 2 1 1 2 1 1 3 3 4 6 5 3 2 3 5 7 9 8 4 4 7 8 7 7 7 7 9 12 13 15 16 15 15 14 15 15 15 15 16 16 17 18 16 15 16 16 17 19 20 21 22 22 22 22 22 21 21 21 22 24 28 32 33 30 28 29 30 29 28 27 23 22 24 28
8 8 7 6 5 4 5 6 6 7 4 1 1 2 1 1 1 1 5 5 1 4 5 3 3 5 6 7 8 7 5 6 8 8 7 8 7 5 7 10 13 15 16 14 12 13 14 14 15 16 16 16 19 20 20 20 21 19 19 20 20 21 22 22 23 24 25 25 24 23 23 25 30 32 31 30 31 31 31 31 30 28 25 24 23 25
5 5 6 7 7 7 8 7 6 6 4 2 4 3 1 3 2 2 8 5 1 4 5 5 5 8 7 8 8 5 5 7 9 9 10 10 10 9 9 10 13 14 14 13 12 12 13 14 15 16 18 19 20 22 23 23 23 22 22 21 21 23 23 24 25 26 26 26 26 25 25 27 29 30 30 31 32 33 33 31 28 27 26 25 25 24
2 2 4 6 8 9 10 8 7 6 5 6 8 5 2 3 1 6 7 1 4 6 6 6 8 9 9 9 7 5 6 9 11 11 10 10 11 12 12 11 12 12 12 12 11 11 12 14 15 17 19 21 21 22 23 23 23 24 23 22 23 24 25 25 26 26 26 26 27 29 31 31 31 31 31 33 33 33 33 31 30 29 28 27 26 27
2 2 3 4 6 7 8 7 7 6 5 7 7 1 4 3 5 5 3 1 4 7 6 7 10 10 9 9 7 6 9 11 11 10 9 10 12 12 11 10 11 12 13 13 12 11 12 15 17 19 22 22 22 21 21 22 24 24 24 23 24 25 25 26 27 27 27 28 30 32 33 34 34 34 33 34 33 32 33 34 33 32 31 29 29 31
3 2 3 4 4 4 5 5 5 5 4 6 4 2 4 6 4 2 2 2 3 6 6 7 8 8 8 8 8 9 10 10 10 10 10 11 11 9 9 9 9 12 14 15 15 14 14 16 18 20 22 23 22 21 20 22 24 25 24 26 27 27 27 27 28 28 29 31 33 34 35 35 36 36 35 35 34 33 33 34 34 33 32 30 30 31
3 4 4 4 3 4 5 5 5 4 3 5 5 4 5 5 3 3 5 6 6 6 6 5 6 6 6 6 8 9 9 9 9 9 9 9 9 8 8 10 10 12 14 15 16 15 15 16 18 21 24 26 24 22 21 22 23 24 25 26 27 27 26 27 29 30 31 33 34 34 35 35 36 36 35 35 34 32 32 33 33 32 31 29 28 27
6 7 5 4 3 4 5 5 2 1 2 4 6 6 6 7 7 6 6 7 7 6 5 5 7 6 3 4 7 8 7 8 8 7 7 8 9 9 9 11 12 13 14 15 15 15 15 17 19 22 26 28 26 23 21 20 20 23 25 26 26 27 28 32 35 35 34 36 35 35 35 36 36 36 36 35 33 31 30 31 31 29 27 27 27 26
6 5 1 2 4 4 7 8 5 4 7 8 8 8 8 9 9 8 7 8 7 5 3 3 5 4 1 2 5 6 6 6 6 7 8 8 9 9 10 12 13 14 14 14 15 16 18 19 20 22 25 28 27 23 21 20 21 23 26 28 28 29 32 35 36 36 36 37 37 36 37 37 36 36 36 34 33 32 31 31 30 29 28 27 27 27
6 5 3 4 6 4 7 9 8 9 12 11 9 9 9 10 10 8 7 7 5 1 1 1 2 1 1 2 3 6 6 5 6 8 9 8 9 9 9 11 14 14 14 14 15 18 19 19 19 21 24 28 28 25 23 24 24 24 26 28 28 30 31 32 32 33 35 35 34 35 36 35 34 34 34 33 32 32 33 32 32 31 31 29 27 27
4 5 5 7 8 7 10 13 11 11 12 11 9 9 9 11 12 7 2 1 1 2 2 2 2 2 2 2 3 5 6 5 6 8 9 7 8 8 9 11 14 15 16 17 16 16 17 18 20 22 24 26 28 26 26 27 26 25 26 27 27 29 31 32 31 32 34 33 32 32 31 31 32 33 32 32 31 31 31 32 31 31 31 31 29 27
2 3 4 5 7 7 10 14 14 12 12 12 12 12 10 10 9 3 2 2 2 2 3 2 2 2 2 3 3 4 6 6 6 8 9 9 8 8 10 13 15 16 18 18 17 16 17 19 21 23 25 26 27 27 28 28 28 28 28 29 31 32 33 33 32 32 33 32 31 30 29 28 29 29 29 30 31 30 31 32 31 32 33 33 33 32
3 6 5 4 5 8 9 12 12 8 9 12 10 7 5 3 2 2 3 3 3 2 2 1 2 2 2 3 3 4 6 6 6 8 9 8 8 11 13 15 17 17 17 18 18 19 19 19 20 23 26 27 27 27 28 30 31 32 32 33 33 32 31 32 33 33 32 30 29 29 29 28 29 29 29 30 30 31 33 33 33 35 37 37 37 37
9 11 8 6 9 11 12 13 9 5 9 13 8 1 3 2 2 3 4 3 3 2 0 1 2 2 2 3 3 4 6 7 7 8 9 9 10 13 14 14 16 17 18 18 19 20 21 22 22 24 27 28 27 28 30 32 34 36 37 37 35 33 31 31 31 31 30 29 29 30 30 30 31 30 30 30 30 30 31 32 33 34 37 39 41 41
Wind_Direction
195 207 195 208 225 236 234 226 238 260 303 316 295 280 276 281 278 274 277 278 281 279 275 274 280 285 287 284 280 276 272 267 269 274 279 280 279 275 271 274 293 310 321 344 285 265 267 278 286 289 286 280 275 268 261 251 246 244 239 237 236 233 228 221 216 214 212 209 208 211 215 220 222 223 224 226 227 227 227 228 227 227 226 224 223 222
209 227 213 223 236 252 267 264 263 271 284 274 269 278 273 272 276 275 277 285 304 285 279 280 284 290 292 285 276 267 266 267 270 275 277 275 271 269 277 317 17 349 318 284 269 269 277 293 306 311 311 303 291 280 271 259 252 248 241 237 236 234 230 224 219 217 216 215 213 214 217 220 219 222 223 225 227 227 228 229 228 227 225 224 223 222
218 230 226 232 239 272 327 275 273 261 262 265 263 272 272 275 283 277 266 279 323 297 293 299 294 294 286 277 273 268 263 264 267 264 261 262 264 277 340 5 351 324 306 289 285 290 294 309 333 342 345 335 320 305 289 278 267 255 245 240 235 233 233 229 225 224 223 222 222 222 223 223 220 224 227 227 228 228 228 229 228 227 226 225 223 222
236 225 227 237 234 237 247 234 251 268 261 248 247 264 274 277 282 277 253 294 349 274 289 303 296 286 275 267 272 277 261 255 262 256 251 255 272 313 346 335 319 314 302 306 321 325 331 354 12 14 14 8 359 347 328 311 293 272 258 250 242 236 234 232 230 229 228 226 227 227 227 228 226 229 233 232 232 232 231 230 229 228 227 226 224 223
249 209 172 234 217 224 244 240 237 257 260 240 232 250 266 267 267 273 285 320 312 275 283 314 301 279 264 211 58 302 252 251 262 256 255 269 5 357 7 356 311 291 291 329 346 347 5 15 21 25 22 19 16 8 358 351 332 307 285 267 253 242 237 236 235 233 230 227 228 226 227 232 234 237 237 235 234 232 231 231 230 230 228 227 226 225
257 210 131 189 192 205 228 238 231 233 261 259 222 226 248 263 269 275 290 318 308 276 57 350 319 287 169 100 11 302 288 280 266 260 272 11 54 45 52 33 280 290 322 351 341 348 21 24 23 26 22 16 14 11 11 14 12 354 327 294 268 251 243 241 239 236 230 225 223 218 218 223 226 232 231 230 229 226 228 230 230 232 230 229 228 226
257 206 130 201 195 180 203 243 234 213 249 269 220 217 241 258 265 272 290 304 293 290 41 20 309 285 254 241 259 272 274 268 263 269 294 351 20 18 18 343 344 20 15 359 1 24 35 29 25 23 18 12 8 14 19 23 25 18 3 339 301 268 252 248 244 237 229 222 217 215 215 216 217 224 227 226 225 225 229 230 230 232 231 230 229 227
208 163 96 174 190 186 210 246 226 188 226 267 53 185 239 257 262 262 280 267 276 313 308 188 229 273 282 253 220 241 246 250 260 283 324 16 30 28 29 18 13 20 15 11 21 31 32 28 27 23 17 13 12 19 25 26 26 23 15 2 337 303 272 262 254 242 233 225 218 217 218 219 221 225 228 226 225 227 230 229 229 230 230 230 229 228
168 180 174 173 183 205 217 240 172 175 217 297 53 48 141 271 268 222 255 263 277 312 284 189 190 262 282 250 132 222 237 240 256 289 6 45 47 35 36 28 16 24 26 27 28 26 29 29 23 17 11 11 15 22 29 30 28 25 19 13 0 336 306 281 269 252 241 234 226 223 222 224 228 229 230 231 229 228 228 229 229 228 229 230 229 228
159 192 195 181 196 223 215 158 141 183 211 76 110 98 87 97 68 149 262 286 281 280 265 180 178 253 289 237 138 206 246 245 253 167 66 79 77 41 34 29 21 32 30 29 35 31 34 35 25 19 14 12 16 25 32 33 30 26 20 16 9 354 333 305 287 266 252 245 237 233 230 230 232 231 230 232 230 226 226 229 228 226 226 228 228 227
125 73 296 208 222 235 121 77 83 179 150 121 153 121 81 180 94 173 263 317 275 272 244 176 187 226 286 323 151 204 264 342 346 3 356 72 92 50 30 31 25 31 32 31 37 33 35 37 29 24 21 18 20 27 33 32 30 27 22 17 11 3 350 328 306 284 266 255 247 242 241 239 238 235 231 232 232 227 224 225 225 224 224 226 228 227
171 173 222 226 223 125 109 109 46 77 112 156 141 330 295 262 236 213 192 137 251 271 231 154 193 222 245 245 99 308 349 346 326 345 339 2 60 51 32 39 33 30 34 35 35 29 29 30 25 21 20 19 21 26 29 28 29 29 25 20 15 9 1 347 325 302 281 266 258 253 250 249 247 242 239 239 238 231 226 226 225 222 221 223 225 225
196 199 198 170 220 185 178 174 118 113 158 174 152 272 289 305 295 250 226 202 246 269 70 63 287 237 245 252 265 277 287 30 17 345 341 5 53 57 43 47 43 36 34 35 33 28 26 23 19 18 18 20 22 24 24 22 24 26 26 24 20 13 9 1 345 324 302 284 274 266 259 257 255 250 247 247 245 238 233 231 226 222 221 221 223 225
242 212 152 167 236 187 183 193 205 190 170 176 179 174 189 234 274 266 267 276 270 274 96 137 249 253 265 269 247 259 293 13 5 346 8 55 73 64 52 48 45 40 34 33 33 30 27 20 15 15 18 21 22 22 21 18 19 21 24 25 23 19 17 13 1 344 327 310 297 285 275 268 262 257 253 251 250 246 240 234 230 228 228 229 230 232
257 279 174 173 182 165 186 207 200 123 159 183 173 165 194 196 237 261 252 258 275 279 161 153 205 263 283 340 213 250 26 21 3 27 62 73 70 58 53 47 42 39 32 29 33 31 28 22 18 16 17 20 21 22 20 16 15 18 19 21 22 21 20 20 16 4 350 336 319 306 294 282 274 267 262 258 255 252 247 241 236 234 236 238 239 239
237 263 166 131 33 163 185 210 107 101 168 188 114 172 235 205 197 244 246 240 281 296 240 198 229 267 278 297 282 270 82 70 51 57 65 62 58 54 50 43 39 37 30 28 31 30 28 26 23 21 19 19 20 20 18 14 14 16 16 18 20 20 20 22 22 16 6 354 340 327 313 299 287 278 272 267 262 256 252 247 244 242 243 245 245 243
242 257 96 72 281 175 173 356 101 163 235 147 151 200 227 121 172 246 259 217 279 281 252 236 258 267 278 283 267 243 114 83 61 56 61 58 58 59 52 43 39 38 34 32 32 29 28 26 26 25 23 22 19 16 14 11 13 16 16 17 19 21 22 22 23 22 16 7 356 344 330 314 302 290 281 276 271 266 261 255 253 251 249 249 248 247
278 278 209 157 216 165 33 334 77 344 341 150 183 219 140 41 138 231 264 186 206 250 247 242 259 271 284 281 194 128 103 83 68 64 64 53 52 54 49 43 37 36 37 36 36 33 30 28 27 27 26 23 19 14 11 10 13 17 18 20 21 21 22 20 21 22 20 15 7 358 348 334 320 306 292 284 279 274 269 263 260 256 253 252 252 250
335 284 264 168 210 113 102 249 227 130 32 131 238 308 37 239 234 200 218 219 227 248 242 219 245 259 259 261 261 91 78 70 63 59 55 46 46 46 42 40 34 33 33 34 37 35 32 31 26 25 24 21 19 17 15 15 18 21 21 24 26 25 24 23 22 23 22 21 17 9 1 349 335 322 307 296 288 281 274 268 265 263 260 259 258 255
20 273 276 82 78 84 132 218 221 170 141 134 232 277 27 259 257 232 210 232 234 251 255 229 231 241 251 265 72 83 71 64 56 50 48 44 47 47 43 39 31 32 32 30 33 30 31 32 26 24 18 10 10 13 15 18 23 25 24 25 26 27 27 26 25 24 23 23 22 19 15 9 358 343 326 311 301 293 285 279 275 272 269 266 263 260
124 252 265 246 133 262 214 201 208 194 183 198 213 218 217 203 242 266 260 216 231 252 259 255 245 234 253 44 95 103 89 84 81 76 68 51 50 51 46 42 34 35 34 29 31 28 26 25 22 20 13 4 3 6 11 17 24 26 25 23 23 22 22 22 23 23 23 23 23 22 22 21 17 10 358 344 330 315 303 295 288 284 280 274 268 264
255 244 256 262 247 248 250 177 163 215 217 236 243 235 248 254 261 269 253 214 218 241 240 254 258 244 334 61 98 108 103 105 102 100 98 76 61 54 42 40 37 34 29 23 22 19 18 17 12 9 10 12 14 12 12 15 18 20 20 19 20 20 20 21 22 21 20 20 21 21 22 21 20 18 13 7 358 341 322 310 301 295 290 282 275 270
341 260 253 261 251 256 275 324 102 231 248 248 250 250 260 262 255 261 264 258 248 244 236 254 255 242 68 69 100 109 113 110 101 103 106 101 92 76 56 47 42 40 33 21 13 9 5 0 357 358 4 10 13 12 10 12 13 13 13 13 14 15 15 17 20 21 20 19 19 18 19 19 19 18 16 13 7 356 342 326 315 308 300 292 285 278
5 254 256 261 258 266 273 273 89 81 228 228 243 258 268 270 273 272 272 285 275 247 249 260 253 235 119 115 112 112 116 110 102 106 107 106 101 88 83 77 59 49 34 13 3 357 347 348 357 4 7 8 8 8 8 8 8 8 9 10 10 10 9 10 12 15 17 18 18 18 17 16 16 15 15 14 10 5 358 347 333 321 311 303 295 286
287 265 282 284 273 267 257 236 132 88 98 272 292 310 314 311 322 317 286 270 255 230 234 250 260 247 143 155 149 137 134 128 120 111 103 98 84 68 62 50 33 22 11 360 354 356 356 3 10 10 8 5 3 2 2 2 2 2 3 4 5 6 6 7 7 9 10 12 13 15 15 15 14 11 10 9 7 6 4 0 351 338 323 311 301 294
251 258 273 279 270 266 270 272 266 98 33 337 291 282 281 288 305 310 293 277 268 247 245 256 277 290 253 249 243 192 144 121 115 108 97 94 84 66 54 34 18 11 1 355 354 357 359 2 6 7 5 2 358 356 354 353 354 353 354 356 358 359 360 2 4 4 5 5 5 6 7 9 10 9 7 5 3 2 2 2 360 354 342 325 308 300
217 240 229 245 261 268 274 280 285 298 281 277 277 275 273 274 275 271 265 265 275 292 280 263 269 279 286 289 283 277 40 55 80 93 86 99 105 83 63 26 358 345 330 333 337 340 348 352 356 357 355 352 349 345 343 341 341 343 344 346 350 352 353 355 358 358 358 357 356 355 357 360 1 2 2 2 2 360 359 359 359 359 356 346 329 309
208 246 231 238 255 261 269 278 287 304 272 270 278 277 274 274 265 253 255 261 275 287 277 264 271 274 276 281 285 299 38 41 51 66 57 222 222 239 274 289 294 304 303 297 296 303 318 330 337 341 340 339 339 337 338 336 335 336 335 334 339 344 346 347 350 351 350 349 348 347 350 351 352 354 355 356 357 357 357 356 356 356 357 355 347 331
228 262 253 255 267 266 274 282 284 285 277 269 270 272 276 277 268 259 257 258 263 266 267 274 277 275 276 281 288 348 58 35 16 13 330 296 260 243 259 278 285 298 308 307 308 316 317 313 318 322 321 323 326 330 333 334 334 335 333 329 329 333 336 338 338 338 339 341 340 340 344 346 349 350 350 350 352 352 352 353 353 353 354 353 351 346
234 257 260 285 285 280 281 284 285 287 282 273 268 269 271 271 270 269 267 264 263 261 262 268 269 271 279 296 4 62 46 3 350 330 312 310 294 274 269 274 276 279 285 290 298 308 312 310 310 309 311 314 318 322 325 327 330 331 330 329 328 329 331 331 327 324 324 326 326 328 334 339 343 346 346 346 346 347 348 348 348 349 349 350 350 349
264 257 27 1 304 284 278 281 286 287 282 279 277 271 265 265 268 269 268 266 264 262 260 261 263 266 276 71 83 61 352 336 329 318 314 311 297 284 278 278 277 277 282 288 292 294 293 291 290 291 296 300 305 312 314 316 321 322 323 324 324 326 329 329 326 323 320 320 320 321 324 328 333 337 340 341 341 342 344 344 344 345 345 345 346 346
281 275 350 332 288 272 279 287 291 293 290 281 272 263 258 258 259 258 258 259 259 263 265 264 264 264 155 108 83 350 351 322 318 316 312 305 290 275 276 281 282 281 290 299 299 292 285 283 284 283 285 286 291 297 300 304 309 311 313 315 316 319 323 324 324 323 322 322 323 323 322 322 326 329 332 334 335 336 337 338 340 341 341 341 342 340
228 244 296 292 272 274 284 302 330 320 298 273 258 254 253 252 254 253 253 256 259 262 269 272 271 264 121 127 30 353 333 308 314 315 311 310 303 287 279 282 283 284 290 295 293 289 285 283 281 278 279 281 283 288 293 296 296 296 299 304 307 309 313 315 317 318 318 320 322 322 320 319 321 323 325 328 329 330 330 331 333 334 334 335 336 335
232 253 264 254 263 276 287 37 59 270 265 263 271 302 262 264 266 261 257 260 263 258 275 294 131 142 157 164 222 314 293 271 284 290 292 296 295 292 290 286 283 282 283 283 283 283 279 275 272 269 268 270 275 285 293 294 292 293 295 297 298 300 303 306 309 311 312 313 316 316 316 315 316 317 318 321 324 325 325 324 325 326 326 327 329 329
251 255 254 236 250 272 331 38 258 248 246 293 4 79 198 289 279 268 265 263 237 138 163 170 160 170 182 196 236 278 280 269 267 272 279 282 282 285 286 284 281 277 277 280 284 285 283 281 279 275 270 268 272 285 294 295 297 299 300 300 298 296 296 297 300 303 304 306 308 311 311 311 311 312 314 315 316 316 316 316 316 317 319 320 320 321
246 248 234 205 218 246 224 217 238 264 330 311 290 228 151 247 249 258 267 244 178 180 198 191 181 184 200 255 280 283 275 270 268 262 264 269 272 273 275 277 277 272 269 276 283 287 289 289 289 288 287 284 281 284 290 296 301 303 303 305 303 300 297 294 291 293 295 296 299 302 304 304 304 307 310 311 310 307 307 308 307 308 310 311 312 314
229 231 219 218 216 220 231 228 244 306 321 297 283 232 144 239 243 264 293 235 183 193 201 182 184 220 282 303 311 310 290 270 276 263 247 246 253 261 268 273 273 270 267 268 269 273 279 285 291 297 300 300 297 297 300 303 305 304 302 302 302 301 300 295 291 291 290 288 289 292 294 295 297 300 304 305 304 303 303 303 301 300 300 300 302 305
219 218 206 221 230 205 225 246 257 273 278 286 303 257 175 312 348 18 306 263 183 186 193 167 196 268 291 297 301 307 300 279 284 283 273 264 260 262 274 278 276 271 268 268 272 282 291 299 308 310 309 308 306 307 312 312 311 306 299 297 298 297 295 292 291 291 289 287 287 287 286 288 292 296 298 298 297 298 300 299 298 297 294 290 291 294
206 218 209 222 242 217 221 244 245 251 264 239 228 239 144 110 86 43 291 291 165 174 190 185 246 270 271 273 282 289 287 282 285 292 301 303 304 301 292 291 288 281 276 281 297 310 314 317 319 316 312 310 308 312 315 315 313 308 299 297 298 294 289 288 289 289 288 289 289 286 283 285 290 291 292 292 293 294 296 296 295 294 291 287 287 288
172 202 205 215 235 234 238 249 248 258 278 237 233 256 120 124 118 276 282 290 136 188 198 189 235 262 263 267 273 266 262 276 287 294 303 309 314 311 297 292 294 292 293 303 314 320 320 319 318 316 312 309 308 311 313 312 311 305 299 299 298 293 289 289 290 289 289 291 291 288 286 287 287 287 286 287 290 291 292 292 291 290 289 287 288 287
147 191 207 215 230 236 240 249 254 261 266 256 262 267 135 121 197 257 264 238 155 214 219 199 230 256 260 260 263 254 258 275 283 290 301 308 307 303 299 300 303 302 304 307 311 319 321 315 312 309 305 303 304 306 309 311 309 303 301 300 295 292 295 297 297 297 295 293 292 290 289 288 287 286 285 285 286 287 288 287 287 287 287 288 289 288
164 185 223 220 227 235 241 250 262 273 261 247 263 268 138 194 255 252 252 118 176 224 235 222 234 249 250 249 256 266 276 281 281 284 294 297 296 298 303 313 317 313 313 313 312 319 322 314 310 306 302 303 305 307 312 314 310 305 304 301 296 298 303 304 302 301 298 294 293 291 289 288 287 286 285 284 284 284 284 284 284 284 285 286 287 287
177 180 226 210 197 216 239 239 248 272 246 200 196 139 169 213 247 284 309 294 239 245 255 242 237 241 245 256 271 276 277 277 276 279 286 288 293 299 307 316 317 310 311 313 313 320 323 316 309 306 305 307 309 311 316 317 312 307 304 301 301 305 307 304 303 303 300 296 294 292 289 288 287 286 285 283 282 282 281 281 282 282 284 284 284 284
193 199 232 227 176 184 227 224 213 248 238 174 179 218 221 222 258 318 305 297 290 281 278 270 264 261 259 271 279 276 273 272 274 283 290 292 297 304 308 313 310 305 306 308 311 319 323 316 311 309 308 308 309 313 316 314 310 306 302 304 308 312 311 309 309 307 302 298 296 293 291 290 288 286 284 283 283 281 278 278 279 280 280 280 280 280
209 209 232 250 205 195 243 255 209 201 231 190 198 236 256 266 281 288 285 284 283 281 284 283 282 282 274 265 268 268 269 274 283 294 297 294 299 304 307 308 305 303 305 307 311 320 324 319 315 311 307 306 309 314 316 315 313 309 306 309 313 314 313 311 309 307 303 299 297 295 294 292 290 287 285 284 284 281 278 278 278 276 274 275 275 275
234 224 229 279 240 235 264 264 240 234 254 245 233 239 252 264 274 276 272 271 272 275 277 272 277 284 268 234 257 265 270 281 292 295 291 291 295 301 304 303 302 304 308 311 317 325 326 320 314 310 307 306 310 316 318 316 316 312 308 309 310 310 310 308 305 303 300 297 295 294 293 292 290 287 285 283 282 279 276 275 274 273 271 270 269 268
245 210 183 232 247 253 262 254 238 237 250 254 256 260 259 260 263 265 269 275 281 281 213 217 253 255 171 194 252 266 274 284 288 287 289 290 292 297 301 300 302 307 311 315 319 322 324 320 314 313 311 308 310 316 316 312 310 308 306 306 306 306 306 303 301 299 296 294 295 294 292 290 288 287 285 283 279 276 273 271 269 268 267 265 263 263
226 175 183 224 237 238 253 261 259 254 255 258 261 265 268 268 267 263 251 269 311 105 121 132 154 170 187 236 261 270 280 284 282 285 290 292 293 298 301 301 305 310 312 313 317 322 324 320 314 311 308 306 308 312 310 307 306 305 304 303 302 301 301 298 296 295 293 293 294 293 291 289 287 286 285 283 279 275 272 270 268 266 263 261 260 261
160 163 172 202 230 238 252 261 263 264 267 263 251 245 251 264 269 260 126 131 144 136 139 152 180 202 238 266 273 278 282 283 284 289 291 295 299 301 302 305 308 309 311 314 318 321 320 315 309 307 305 303 304 305 304 303 302 301 301 300 299 300 300 298 296 294 293 293 293 292 291 290 288 286 286 284 282 278 274 271 269 269 267 265 262 261
187 228 198 174 237 247 245 247 248 252 268 270 259 234 225 248 254 182 161 164 167 172 183 205 223 223 234 262 285 288 283 285 294 295 292 293 298 300 303 307 308 308 310 314 315 314 312 309 307 305 302 301 302 302 301 301 300 300 299 299 300 300 297 295 295 294 293 293 293 291 291 290 289 287 286 285 283 281 278 274 270 268 268 269 268 265
218 233 211 198 236 247 247 247 237 219 256 273 280 183 142 150 187 191 188 180 169 167 196 276 276 272 260 264 281 287 288 293 301 301 295 291 296 300 302 306 309 308 310 311 311 310 311 310 309 304 300 300 301 301 299 299 298 298 299 300 301 300 295 293 294 293 292 292 291 289 289 289 287 286 285 283 282 281 280 279 275 270 266 266 268 268